Location: Newark
(55.7083°N, 13.1992°E)
Time: 23:53:48
(UTC+00:00)

Envisat - Pass Details

Date: 11 October 2022
Orbit: 763 x 765 km, 98.2° (Epoch: 09 December)

Event Time Altitude Azimuth Distance (km) Brightness Sun altitude
Rises 02:16:58 0° 23° (NNE) 3,248 7.0 -27.0°
Reaches altitude 10° 02:19:54 10° 40° (NE) 2,316 6.4 -26.7°
Maximum altitude 02:23:37 20° 88° (E) 1,714 5.4 -26.2°
Drops below altitude 10° 02:27:20 10° 135° (SE) 2,303 5.6 -25.7°
Sets 02:30:14 0° 152° (SSE) 3,224 6.3 -25.4°
